SHT5U EGAC-EGLL

Flight info

Callsign SHT5U
Flight time 0h 48m
Altitude 33000
Route DCT DUFFY L10 RINGA Q39 ETIGA DCT INKOB Q39 NOMSU UQ4 WAL UY53 NUGRA NUGRA2H
Aircraft A320/M-SDE3FGHIJ1RWXY/S

Departure

Time 2026-04-22 22:03
Airport George Best Belfast City Airport (EGAC)

Arrival

Time 2026-04-22 22:52
Airport London Heathrow Airport (EGLL)
Time Latitude Longitude Altitude Speed Heading
2026-04-22 21:44 54.61546 -5.87093 21 ft 0 kts 160°
2026-04-22 21:53 54.61542 -5.87090 22 ft 0 kts 161°
2026-04-22 21:56 54.61553 -5.87096 21 ft 3 kts 161°
2026-04-22 21:56 54.61570 -5.87106 21 ft 2 kts 161°
2026-04-22 21:56 54.61589 -5.87116 21 ft 3 kts 173°
2026-04-22 21:57 54.61610 -5.87117 23 ft 3 kts 192°
2026-04-22 21:57 54.61629 -5.87106 23 ft 3 kts 213°
2026-04-22 21:57 54.61636 -5.87097 21 ft 0 kts 214°
2026-04-22 22:01 54.61608 -5.87132 22 ft 16 kts 215°
2026-04-22 22:01 54.61504 -5.87255 24 ft 20 kts 214°
2026-04-22 22:01 54.61395 -5.87418 23 ft 22 kts 227°
2026-04-22 22:02 54.61262 -5.87590 18 ft 26 kts 215°
2026-04-22 22:02 54.61119 -5.87761 18 ft 15 kts 214°
2026-04-22 22:02 54.61108 -5.87965 18 ft 26 kts 309°
2026-04-22 22:02 54.61314 -5.87847 14 ft 68 kts 36°
2026-04-22 22:03 54.61934 -5.87099 19 ft 142 kts 35°
2026-04-22 22:03 54.62836 -5.86090 497 ft 160 kts 33°
2026-04-22 22:03 54.63910 -5.85723 1368 ft 165 kts 353°
2026-04-22 22:03 54.65009 -5.86730 1530 ft 199 kts 313°
2026-04-22 22:04 54.65619 -5.89025 1762 ft 228 kts 277°
2026-04-22 22:04 54.65322 -5.91797 2100 ft 249 kts 236°
2026-04-22 22:04 54.64020 -5.93778 2667 ft 255 kts 196°
2026-04-22 22:04 54.62318 -5.93939 3577 ft 244 kts 159°
2026-04-22 22:05 54.60897 -5.92453 4536 ft 241 kts 138°
2026-04-22 22:05 54.59717 -5.90499 5739 ft 225 kts 134°
2026-04-22 22:05 54.58679 -5.88597 6923 ft 214 kts 135°
2026-04-22 22:05 54.57653 -5.86720 7688 ft 216 kts 135°
2026-04-22 22:06 54.56600 -5.84839 8413 ft 220 kts 135°
2026-04-22 22:06 54.55516 -5.82953 9130 ft 223 kts 136°
2026-04-22 22:06 54.54408 -5.81060 9847 ft 226 kts 136°
2026-04-22 22:06 54.53283 -5.79162 10584 ft 227 kts 136°
2026-04-22 22:07 54.52142 -5.77259 11302 ft 229 kts 136°
2026-04-22 22:07 54.51044 -5.75221 11848 ft 241 kts 128°
2026-04-22 22:07 54.50002 -5.72774 12081 ft 265 kts 127°
2026-04-22 22:07 54.48900 -5.70061 12275 ft 288 kts 126°
2026-04-22 22:08 54.47720 -5.67105 12424 ft 311 kts 126°
2026-04-22 22:08 54.46462 -5.63938 12630 ft 329 kts 126°
2026-04-22 22:08 54.45154 -5.60647 13157 ft 336 kts 126°
2026-04-22 22:08 54.43819 -5.57314 13745 ft 341 kts 126°
2026-04-22 22:09 54.42463 -5.53941 14329 ft 345 kts 126°
2026-04-22 22:09 54.41086 -5.50528 14910 ft 350 kts 126°
2026-04-22 22:09 54.39688 -5.47071 15465 ft 354 kts 126°
2026-04-22 22:09 54.38272 -5.43580 16010 ft 359 kts 126°
2026-04-22 22:10 54.36835 -5.40047 16536 ft 363 kts 127°
2026-04-22 22:10 54.35381 -5.36480 17063 ft 367 kts 127°
2026-04-22 22:10 54.33911 -5.32871 17590 ft 371 kts 127°
2026-04-22 22:10 54.32427 -5.29224 18116 ft 375 kts 127°
2026-04-22 22:11 54.30926 -5.25537 18630 ft 379 kts 127°
2026-04-22 22:11 54.29406 -5.21817 19166 ft 383 kts 127°
2026-04-22 22:11 54.27870 -5.18066 19694 ft 387 kts 127°
2026-04-22 22:11 54.26313 -5.14273 20223 ft 391 kts 127°
2026-04-22 22:12 54.24739 -5.10444 20753 ft 395 kts 127°
2026-04-22 22:12 54.23151 -5.06581 21253 ft 399 kts 127°
2026-04-22 22:12 54.21545 -5.02682 21722 ft 403 kts 127°
2026-04-22 22:12 54.19924 -4.98751 22167 ft 406 kts 127°
2026-04-22 22:13 54.18290 -4.94789 22599 ft 410 kts 127°
2026-04-22 22:13 54.16640 -4.90799 23036 ft 413 kts 127°
2026-04-22 22:13 54.14976 -4.86785 23455 ft 416 kts 127°
2026-04-22 22:13 54.13296 -4.82739 23847 ft 419 kts 126°
2026-04-22 22:14 54.11603 -4.78669 24246 ft 422 kts 126°
2026-04-22 22:14 54.09904 -4.74587 24622 ft 425 kts 127°
2026-04-22 22:14 54.08183 -4.70461 24993 ft 428 kts 127°
2026-04-22 22:14 54.06450 -4.66322 25363 ft 430 kts 127°
2026-04-22 22:15 54.04704 -4.62165 25718 ft 433 kts 127°
2026-04-22 22:15 54.02947 -4.57980 26054 ft 436 kts 127°
2026-04-22 22:15 54.01178 -4.53770 26387 ft 438 kts 127°
2026-04-22 22:15 53.99401 -4.49544 26727 ft 441 kts 127°
2026-04-22 22:16 53.97613 -4.45302 27052 ft 444 kts 127°
2026-04-22 22:16 53.95807 -4.41028 27366 ft 446 kts 127°
2026-04-22 22:16 53.93995 -4.36739 27685 ft 449 kts 127°
2026-04-22 22:16 53.92167 -4.32422 27988 ft 451 kts 127°
2026-04-22 22:17 53.90332 -4.28093 28299 ft 453 kts 127°
2026-04-22 22:17 53.88481 -4.23737 28590 ft 456 kts 127°
2026-04-22 22:17 53.86621 -4.19371 28871 ft 458 kts 127°
2026-04-22 22:17 53.84751 -4.14992 29216 ft 459 kts 128°
2026-04-22 22:18 53.82882 -4.10621 29609 ft 458 kts 128°
2026-04-22 22:18 53.81013 -4.06256 29978 ft 458 kts 128°
2026-04-22 22:18 53.79146 -4.01897 30350 ft 458 kts 128°
2026-04-22 22:18 53.77274 -3.97533 30731 ft 458 kts 128°
2026-04-22 22:19 53.75401 -3.93179 31091 ft 458 kts 128°
2026-04-22 22:19 53.73529 -3.88838 31457 ft 458 kts 128°
2026-04-22 22:19 53.71654 -3.84490 31830 ft 458 kts 128°
2026-04-22 22:19 53.69798 -3.80196 32190 ft 458 kts 128°
2026-04-22 22:20 53.67914 -3.75856 32548 ft 459 kts 128°
2026-04-22 22:20 53.66025 -3.71513 32913 ft 458 kts 127°
2026-04-22 22:20 53.64143 -3.67188 33246 ft 459 kts 127°
2026-04-22 22:20 53.62251 -3.62845 33381 ft 461 kts 127°
2026-04-22 22:21 53.60340 -3.58461 33403 ft 466 kts 127°
2026-04-22 22:21 53.56464 -3.49593 33406 ft 468 kts 127°
2026-04-22 22:22 53.52592 -3.40784 33407 ft 468 kts 127°
2026-04-22 22:22 53.48737 -3.32041 33401 ft 469 kts 127°
2026-04-22 22:23 53.44850 -3.23232 33409 ft 470 kts 127°
2026-04-22 22:23 53.40950 -3.14440 33405 ft 470 kts 127°
2026-04-22 22:24 53.37044 -3.05665 33403 ft 470 kts 127°
2026-04-22 22:24 53.33119 -2.96904 33415 ft 470 kts 127°
2026-04-22 22:25 53.29196 -2.88151 33420 ft 471 kts 127°
2026-04-22 22:25 53.25260 -2.79410 33421 ft 471 kts 127°
2026-04-22 22:26 53.21321 -2.70672 33420 ft 471 kts 127°
2026-04-22 22:26 53.17371 -2.61940 33422 ft 472 kts 127°
2026-04-22 22:27 53.13404 -2.53210 33421 ft 472 kts 127°
2026-04-22 22:27 53.09428 -2.44503 33423 ft 473 kts 127°
2026-04-22 22:28 53.05442 -2.35798 33420 ft 473 kts 127°
2026-04-22 22:28 53.01022 -2.27780 33387 ft 473 kts 146°
2026-04-22 22:28 52.99119 -2.25893 33218 ft 472 kts 153°
2026-04-22 22:29 52.95265 -2.22422 32887 ft 473 kts 151°
2026-04-22 22:29 52.92430 -2.19634 32642 ft 474 kts 149°
2026-04-22 22:29 52.89637 -2.16716 32389 ft 475 kts 148°
2026-04-22 22:29 52.86866 -2.13724 32138 ft 476 kts 147°
2026-04-22 22:30 52.84094 -2.10711 31890 ft 477 kts 147°
2026-04-22 22:30 52.81317 -2.07720 31636 ft 477 kts 148°
2026-04-22 22:30 52.78516 -2.04754 31389 ft 478 kts 148°
2026-04-22 22:30 52.76621 -2.02776 31220 ft 478 kts 148°
2026-04-22 22:31 52.73790 -1.99852 30970 ft 479 kts 149°
2026-04-22 22:31 52.70957 -1.96948 30718 ft 481 kts 149°
2026-04-22 22:31 52.68109 -1.94032 30470 ft 482 kts 149°
2026-04-22 22:31 52.65255 -1.91105 30214 ft 483 kts 149°
2026-04-22 22:32 52.62398 -1.88166 29964 ft 484 kts 148°
2026-04-22 22:32 52.59518 -1.85195 29434 ft 483 kts 148°
2026-04-22 22:32 52.56671 -1.82260 28735 ft 480 kts 148°
2026-04-22 22:32 52.53858 -1.79367 28051 ft 476 kts 148°
2026-04-22 22:33 52.51060 -1.76498 27360 ft 472 kts 148°
2026-04-22 22:33 52.48284 -1.73656 26687 ft 468 kts 148°
2026-04-22 22:33 52.45538 -1.70851 26017 ft 463 kts 147°
2026-04-22 22:33 52.42814 -1.68074 25349 ft 459 kts 147°
2026-04-22 22:34 52.40115 -1.65326 24695 ft 454 kts 147°
2026-04-22 22:34 52.37450 -1.62617 24045 ft 450 kts 147°
2026-04-22 22:34 52.34804 -1.59933 23397 ft 445 kts 147°
2026-04-22 22:34 52.32187 -1.57282 22775 ft 439 kts 147°
2026-04-22 22:35 52.29603 -1.54667 22161 ft 434 kts 147°
2026-04-22 22:35 52.27017 -1.52059 21586 ft 428 kts 147°
2026-04-22 22:35 52.24537 -1.49561 21029 ft 422 kts 147°
2026-04-22 22:35 52.22065 -1.47020 20496 ft 417 kts 144°
2026-04-22 22:36 52.19804 -1.44042 20037 ft 409 kts 138°
2026-04-22 22:36 52.17665 -1.41029 19627 ft 403 kts 138°
2026-04-22 22:36 52.15558 -1.38085 19214 ft 397 kts 139°
2026-04-22 22:36 52.13471 -1.35179 18804 ft 392 kts 139°
2026-04-22 22:37 52.11414 -1.32321 18409 ft 387 kts 139°
2026-04-22 22:37 52.09373 -1.29492 18007 ft 383 kts 139°
2026-04-22 22:37 52.07356 -1.26698 17614 ft 380 kts 139°
2026-04-22 22:37 52.05365 -1.23937 17361 ft 369 kts 139°
2026-04-22 22:38 52.03449 -1.21286 17225 ft 355 kts 139°
2026-04-22 22:38 52.01598 -1.18724 17109 ft 342 kts 139°
2026-04-22 22:38 51.99816 -1.16261 16967 ft 330 kts 139°
2026-04-22 22:38 51.98097 -1.13887 16852 ft 320 kts 139°
2026-04-22 22:39 51.96401 -1.11547 16732 ft 309 kts 139°
2026-04-22 22:39 51.94810 -1.09352 16598 ft 301 kts 139°
2026-04-22 22:39 51.93243 -1.07191 16479 ft 292 kts 139°
2026-04-22 22:39 51.91717 -1.05084 16336 ft 284 kts 139°
2026-04-22 22:40 51.90221 -1.03024 16099 ft 280 kts 139°
2026-04-22 22:40 51.88744 -1.00996 15810 ft 278 kts 139°
2026-04-22 22:40 51.87272 -0.98977 15524 ft 276 kts 139°
2026-04-22 22:40 51.85835 -0.96932 15244 ft 274 kts 132°
2026-04-22 22:41 51.84735 -0.94452 14946 ft 271 kts 116°
2026-04-22 22:41 51.83911 -0.91723 14651 ft 270 kts 116°
2026-04-22 22:41 51.83091 -0.89016 14427 ft 265 kts 116°
2026-04-22 22:41 51.82292 -0.86398 14276 ft 252 kts 116°
2026-04-22 22:42 51.81524 -0.83891 13930 ft 246 kts 117°
2026-04-22 22:42 51.80769 -0.81434 13516 ft 243 kts 117°
2026-04-22 22:42 51.80023 -0.79007 13082 ft 240 kts 117°
2026-04-22 22:42 51.79283 -0.76605 12647 ft 237 kts 117°
2026-04-22 22:43 51.78553 -0.74235 12214 ft 235 kts 117°
2026-04-22 22:43 51.77829 -0.71883 11784 ft 232 kts 117°
2026-04-22 22:43 51.77115 -0.69555 11344 ft 230 kts 117°
2026-04-22 22:43 51.76388 -0.67217 10639 ft 239 kts 121°
2026-04-22 22:44 51.75254 -0.65231 9926 ft 246 kts 147°
2026-04-22 22:44 51.73635 -0.64348 9354 ft 250 kts 174°
2026-04-22 22:44 51.71859 -0.64763 8600 ft 261 kts 191°
2026-04-22 22:44 51.70095 -0.65524 7981 ft 263 kts 191°
2026-04-22 22:45 51.68329 -0.66292 7442 ft 261 kts 191°
2026-04-22 22:45 51.66583 -0.67050 6907 ft 258 kts 191°
2026-04-22 22:45 51.64859 -0.67798 6381 ft 255 kts 191°
2026-04-22 22:45 51.63148 -0.68533 5859 ft 254 kts 190°
2026-04-22 22:46 51.61431 -0.69266 5167 ft 259 kts 190°
2026-04-22 22:46 51.59700 -0.70006 4792 ft 250 kts 189°
2026-04-22 22:46 51.58084 -0.70709 4660 ft 231 kts 189°
2026-04-22 22:46 51.56588 -0.71358 4528 ft 215 kts 188°
2026-04-22 22:47 51.55203 -0.71956 4408 ft 198 kts 188°
2026-04-22 22:47 51.53873 -0.72520 3920 ft 199 kts 187°
2026-04-22 22:47 51.52531 -0.73079 3443 ft 198 kts 186°
2026-04-22 22:47 51.51180 -0.73206 3012 ft 192 kts 166°
2026-04-22 22:48 51.49965 -0.72647 2872 ft 176 kts 148°
2026-04-22 22:48 51.48964 -0.71581 2769 ft 169 kts 133°
2026-04-22 22:48 51.48230 -0.70158 2645 ft 165 kts 118°
2026-04-22 22:48 51.47781 -0.68457 2480 ft 170 kts 103°
2026-04-22 22:49 51.47657 -0.66561 2277 ft 173 kts 89°
2026-04-22 22:49 51.47670 -0.64611 2054 ft 176 kts 89°
2026-04-22 22:49 51.47681 -0.62692 1825 ft 170 kts 89°
2026-04-22 22:49 51.47691 -0.60872 1605 ft 155 kts 89°
2026-04-22 22:50 51.47699 -0.59228 1427 ft 141 kts 88°
2026-04-22 22:50 51.47707 -0.57697 1232 ft 135 kts 88°
2026-04-22 22:50 51.47714 -0.56204 1054 ft 133 kts 88°
2026-04-22 22:50 51.47714 -0.54708 859 ft 132 kts 88°
2026-04-22 22:51 51.47727 -0.53238 669 ft 131 kts 88°
2026-04-22 22:51 51.47739 -0.51768 490 ft 132 kts 88°
2026-04-22 22:51 51.47741 -0.50296 312 ft 132 kts 89°
2026-04-22 22:51 51.47754 -0.48829 163 ft 132 kts 90°
2026-04-22 22:52 51.47753 -0.47353 86 ft 113 kts 89°
2026-04-22 22:52 51.47757 -0.46541 89 ft 37 kts 90°
2026-04-22 22:52 51.47751 -0.46231 87 ft 18 kts 107°
2026-04-22 22:52 51.47658 -0.46097 88 ft 8 kts 148°
2026-04-22 22:53 51.47602 -0.46099 86 ft 10 kts 225°
2026-04-22 22:53 51.47594 -0.46216 88 ft 12 kts 270°
2026-04-22 22:53 51.47593 -0.46384 86 ft 17 kts 270°
2026-04-22 22:53 51.47592 -0.46591 86 ft 20 kts 269°
2026-04-22 22:54 51.47590 -0.46829 86 ft 23 kts 263°
2026-04-22 22:54 51.47582 -0.47098 90 ft 26 kts 270°
2026-04-22 22:54 51.47582 -0.47399 88 ft 28 kts 269°
2026-04-22 22:54 51.47582 -0.47716 86 ft 29 kts 270°
2026-04-22 22:55 51.47583 -0.48046 88 ft 30 kts 268°
2026-04-22 22:55 51.47579 -0.48305 86 ft 17 kts 266°
2026-04-22 22:55 51.47466 -0.48474 86 ft 15 kts 179°
2026-04-22 22:56 51.47392 -0.48473 89 ft 6 kts 180°
2026-04-22 22:56 51.47365 -0.48494 89 ft 5 kts 242°
2026-04-22 22:56 51.47361 -0.48551 88 ft 5 kts 266°
2026-04-22 22:56 51.47361 -0.48564 88 ft 2 kts 268°
2026-04-22 22:57 51.47361 -0.48586 88 ft 0 kts 269°